sat.trackr.live / text

‹ back to catalog

WILDFIRE 3

NORAD 57758 · 2023-133C

PAYLOAD ACTIVE UNKNOWN

§ Identity

Operator
Country
US
Launch date
2023-09-02
Launch site
AFWTR
Launch vehicle
Mass (kg)
RCS (m²)

External: N2YO · Heavens-Above · Gunter

§ Orbital elements

Epoch: 2026-09-21T12:32:03.907680Z

Period
103.87 min
Inclination
80.9929°
Eccentricity
0.0009724
Mean motion
13.86291814 rev/d
Perigee alt
934.5 km
Apogee alt
948.8 km
Semi-major
7,319.8 km
B*
6.2640e-5
RAAN
273.3210°
Arg perigee
94.3319°
Mean anomaly
265.8949°
Rev number
15,444

§ Raw data

WILDFIRE 31 57758U 23133C   26264.52226745  .00000084  00000+0  62640-4 0  99902 57758  80.9929 273.3210 0009724  94.3319 265.8949 13.86291814154444

JSON: /api/v1/satellites/57758 · /tle

For live sub-satellite position, see the globe view (requires WebGL).

§ Visibility from observer

Set your observer location to see the next 7 days of passes ≥ 10°. The values pass through the URL so the page stays shareable.

No JS? Fill the form by hand. The geolocation button needs JavaScript.

§ Radio — SatNOGS DB

ModeDescriptionDownlinkUplink
BPSK S-band telemetry 2.278 GHz

1 transmitter · refreshed weekly from db.satnogs.org